TimeEST,TemperatureF,Dew PointF,Humidity,Sea Level PressureIn,VisibilityMPH,Wind Direction,Wind SpeedMPH,Gust SpeedMPH,PrecipitationIn,Events,Conditions,WindDirDegrees,DateUTC
12:53 AM,27.0,23.0,85,30.38,-9999.0,Calm,Calm,-,N/A,,Unknown,0,2013-02-18 05:53:00
1:53 AM,26.1,21.9,84,30.37,-9999.0,Calm,Calm,-,N/A,,Unknown,0,2013-02-18 06:53:00
2:53 AM,26.1,21.0,81,30.36,-9999.0,Calm,Calm,-,N/A,,Unknown,0,2013-02-18 07:53:00
3:53 AM,25.0,21.0,85,30.35,-9999.0,Calm,Calm,-,N/A,,Unknown,0,2013-02-18 08:53:00
4:53 AM,24.1,19.9,84,30.35,-9999.0,Calm,Calm,-,N/A,,Unknown,0,2013-02-18 09:53:00
5:53 AM,24.1,19.0,81,30.37,-9999.0,Calm,Calm,-,N/A,,Unknown,0,2013-02-18 10:53:00
6:53 AM,23.0,19.0,85,30.37,-9999.0,Calm,Calm,-,N/A,,Unknown,0,2013-02-18 11:53:00
7:53 AM,27.0,21.9,81,30.39,-9999.0,Calm,Calm,-,N/A,,Unknown,0,2013-02-18 12:53:00
8:53 AM,42.1,27.0,55,30.40,-9999.0,Variable,3.5,-,N/A,,Unknown,0,2013-02-18 13:53:00
9:53 AM,50.0,18.0,28,30.41,-9999.0,ESE,6.9,-,N/A,,Unknown,110,2013-02-18 14:53:00
10:53 AM,54.0,17.1,23,30.41,-9999.0,Calm,Calm,-,N/A,,Unknown,0,2013-02-18 15:53:00
11:53 AM,57.0,18.0,22,30.38,-9999.0,Variable,5.8,-,N/A,,Unknown,0,2013-02-18 16:53:00
12:53 PM,60.1,18.0,20,30.35,-9999.0,ESE,11.5,16.1,N/A,,Unknown,120,2013-02-18 17:53:00
1:53 PM,62.1,21.0,21,30.32,-9999.0,South,9.2,16.1,N/A,,Unknown,170,2013-02-18 18:53:00
2:53 PM,64.0,28.0,26,30.30,-9999.0,SSW,8.1,-,N/A,,Unknown,200,2013-02-18 19:53:00
3:53 PM,64.9,28.9,26,30.29,-9999.0,Variable,4.6,-,N/A,,Unknown,0,2013-02-18 20:53:00
4:53 PM,64.9,28.9,26,30.27,-9999.0,Variable,4.6,-,N/A,,Unknown,0,2013-02-18 21:53:00
5:53 PM,63.0,28.9,28,30.27,-9999.0,ESE,4.6,-,N/A,,Unknown,110,2013-02-18 22:53:00
6:53 PM,51.1,34.0,52,30.27,-9999.0,Calm,Calm,-,N/A,,Unknown,0,2013-02-18 23:53:00
7:53 PM,46.9,34.0,61,30.25,-9999.0,Calm,Calm,-,N/A,,Unknown,0,2013-02-19 00:53:00
8:53 PM,43.0,34.0,71,30.25,-9999.0,Calm,Calm,-,N/A,,Unknown,0,2013-02-19 01:53:00
9:53 PM,42.1,33.1,70,30.25,-9999.0,Calm,Calm,-,N/A,,Unknown,0,2013-02-19 02:53:00
10:53 PM,39.9,33.1,77,30.26,-9999.0,Calm,Calm,-,N/A,,Unknown,0,2013-02-19 03:53:00
11:53 PM,41.0,34.0,76,30.25,-9999.0,Calm,Calm,-,N/A,,Unknown,0,2013-02-19 04:53:00